Regional Weather Roundup
Issued by NWS

Home | Current Version | Previous Version | Graphics & Text | Print | Product List | Glossary Off
Versions: 1 2 3 4 5 6 7 8 9 10 11 12 13 14 15 16 17 18 19 20 21 22 23 24 25 26 27 28 29 30 31 32 33 34 35 36 37 38 39 40 41 42 43 44 45 46 47 48 49 50

000
ASUS43 KLSX 020507
RWRMO

WEATHER SUMMARY FOR MISSOURI
NATIONAL WEATHER SERVICE SPRINGFIELD MO
1200 AM CDT SUN AUG 02 2015

NOTE: "FAIR" INDICATES FEW OR NO CLOUDS BELOW 12,000 FEET WITH NO
       SIGNIFICANT WEATHER AND/OR OBSTRUCTIONS TO VISIBILITY.
       CURRENT SKY AND/OR WEATHER CONDITIONS ARE NOT AVAILABLE FOR
       CHILLICOTHE AND FARMINGTON.

MOZ001>031-035>038-043-044-053-054-020600-
...NORTHERN AND WESTERN MISSOURI...

CITY           SKY/WX    TMP DP  RH WIND       PRES   REMARKS
KANSAS CTY INT MOCLDY    72  62  71 SE5       29.98S
KANSAS C DTWN  PTCLDY    75  61  61 E5        29.97S
LEE`S SUMMIT   PTCLDY    73  61  65 CALM      29.99S
ST JOSEPH      MOCLDY    72  64  76 SW3       29.97S
CHILLICOTHE      N/A     70  60  70 CALM      29.96F
KIRKSVILLE     PTCLDY    64  61  90 CALM      29.96S

$$
MOZ066>068-077>081-088>096-101>105-020600-
...SOUTHWEST MISSOURI...

CITY           SKY/WX    TMP DP  RH WIND       PRES   REMARKS
SPRINGFIELD    CLEAR     72  66  81 CALM      30.02R
JOPLIN         CLEAR     76  66  71 S5        30.01S

$$
MOZ032>034-039>042-045>050-055>058-069>072-020600-
...CENTRAL MISSOURI...

CITY           SKY/WX    TMP DP  RH WIND       PRES   REMARKS
COLUMBIA       MOCLDY    69  68  96 S3        29.99S
JEFFERSON CITY MOCLDY    71  67  87 N6        29.99R
ROLLA          PTCLDY    71  69  93 CALM      30.00R
SEDALIA        MOCLDY    70  65  84 E5        30.00S
WHITEMAN AFB   MOCLDY    69  66  89 NE3       29.98R
WARRENSBURG    MOCLDY    68  63  83 N9        29.99R
OSAGE BEACH    PTCLDY    70  66  88 CALM      30.00R

$$
MOZ051-052-059>065-020600-
...EAST CENTRAL MISSOURI...

CITY           SKY/WX    TMP DP  RH WIND       PRES   REMARKS
ST LOUIS INTL  PTCLDY    82  68  62 S6        29.98S
SPIRIT OF STL  PTCLDY    73  71  93 CALM      29.97R
ST CHARLES     PTCLDY    74  71  91 CALM      29.96S

$$
MOZ072>076-082>087-097>100-106>115-020600-
...SOUTH CENTRAL AND SOUTHEAST MISSOURI...

CITY           SKY/WX    TMP DP  RH WIND       PRES   REMARKS
CAPE GIRARDEAU CLEAR     75  71  87 CALM      29.98S
FARMINGTON     CLEAR     73  70  88 CALM      30.05S
POPLAR BLUFF   CLEAR     77  73  87 CALM      29.97S
WEST PLAINS    CLEAR     70  67  90 CALM      30.04R

$$



USA.gov is the U.S. government's official web portal to all federal, state and local government web resources and services.